[[{"header":{"parameterUnit":"m.s-1","parameterCategory":1,"la1":30.2991,"la2":30.254,"lo1":-89.0895,"lo2":-89.0444,"dy":0.0017,"dx":0.0017,"nx":28,"ny":28,"refTime":"2025-09-12T09:00:00:Z","depth":0,"parameterNumber":2,"parameterNumberName":"U-component_of_WINDS"},"data":[0,0,0,0,0,0,0,0,0,0,0,0,0,0,0,0,0,0,0,0,0,0,0,0,0,0,0,0,0,0,0,0,0,0,0,0,0,0,0,0,0,0,0,0,0,0,0,0,0,0,0,0,0,0,0,0,0,0,1.5533,1.5534,0,1.5619,1.562,1.5621,1.5611,1.5609,1.5608,1.5607,1.5695,1.5698,1.5702,0,0,0,0,0,0,0,0,0,0,0,0,0,1.5359,1.5362,1.5533,1.5534,1.5535,1.5619,1.5621,1.5622,1.5611,1.5609,1.5607,1.5606,1.5693,1.5698,1.5702,0,0,0,0,0,0,0,0,0,0,0,0,0,1.5439,1.5363,1.5533,1.554,1.5542,1.5619,1.5621,1.5622,1.5611,1.5609,1.5607,1.5605,1.5692,1.5697,1.5703,1.5779,0,0,1.5719,1.5722,0,0,0,0,0,0,0,0,1.5434,1.5445,1.5538,1.554,1.5542,1.5602,1.5591,1.5674,1.5612,1.5585,1.5606,1.5604,1.5666,1.5673,1.5694,1.5783,1.5786,1.572,1.5723,1.5726,1.5727,0,0,0,0,0,0,0,1.5429,1.5442,1.5567,1.5539,1.5541,1.5539,1.5548,1.5607,1.5636,1.5587,1.5586,1.5597,1.5666,1.5689,1.5696,1.5788,1.572,1.5725,1.5728,1.573,1.5944,1.5946,0,0,0,0,0,0,1.5422,1.5437,1.5565,1.557,1.5482,1.5544,1.5554,1.5585,1.5635,1.5641,1.5598,1.5596,1.568,1.5689,1.5699,1.5791,1.5726,1.5731,1.5734,1.5941,1.5944,1.5947,0,0,0,0,0,0,1.5418,1.5433,1.5561,1.5503,1.5519,1.5549,1.5584,1.5588,1.561,1.5644,1.5649,1.5616,1.5679,1.5691,1.5759,1.5794,1.5733,1.5738,1.5938,1.5942,1.5945,1.5976,0,0,0,0,0,0,1.5413,1.5432,1.5461,1.5504,1.5523,1.562,1.5586,1.5591,1.562,1.5617,1.5662,1.5667,1.5678,1.5751,1.5764,1.58,1.5742,1.5935,1.594,1.5944,1.5972,1.598,1.5987,0,0,0,0,0,1.5407,1.5466,1.5462,1.5478,1.5559,1.5622,1.5632,1.5644,1.5622,1.5652,1.5674,1.5666,1.5788,1.5758,1.5773,1.5811,1.5933,1.5939,1.5944,1.5968,1.5978,1.5987,0,0,0,0,0,0,1.5425,1.5471,1.5468,1.5543,1.5578,1.562,1.5657,1.5654,1.5696,1.5692,1.5705,1.5715,1.5783,1.5804,1.577,1.5887,1.5858,1.5866,1.5871,1.5881,1.5888,1.5881,1.5747,0,0,0,0,0,1.5438,1.5485,1.5523,1.5585,1.5603,1.5627,1.5655,1.5661,1.5698,1.5713,1.5739,1.5776,1.5823,1.5853,1.5898,1.5975,1.5985,1.6009,1.6016,1.6022,1.6029,1.6072,1.6083,1.5964,1.5964,1.5964,0,0,1.5465,1.5496,1.5524,1.5589,1.5618,1.5666,1.564,1.5691,1.5727,1.5721,1.5786,1.5807,1.5849,1.5922,1.5955,1.5941,1.6065,1.6029,1.6034,1.6038,1.6078,1.609,1.61,1.5968,1.5967,1.5967,0,0,1.5538,1.5566,1.5621,1.565,1.5694,1.5709,1.5723,1.5765,1.5779,1.5845,1.5841,1.5884,1.5964,1.5994,1.602,1.6105,1.61,1.612,1.6159,1.62,1.6209,1.6218,1.6248,1.6259,1.6127,1.6127,1.6127,0,1.5565,1.5637,1.565,1.5702,1.5731,1.5728,1.5784,1.5811,1.5867,1.5887,1.5871,1.5972,1.6,1.6079,1.61,1.6121,1.6137,1.6114,1.6207,1.6216,1.6224,1.6252,1.6264,1.6129,1.6129,1.6129,1.6128,0,1.5669,1.5719,1.5758,1.5813,1.5846,1.59,1.592,1.5953,1.5956,1.5974,1.6042,1.6075,1.6127,1.6147,1.615,1.6227,1.6217,1.6204,1.6174,1.6237,1.6264,1.6275,1.6132,1.6131,1.6131,1.613,0,0,1.5754,1.5815,1.583,1.5854,1.5903,1.5942,1.5996,1.6047,1.6074,1.6113,1.6159,1.6227,1.6216,1.6245,1.6252,1.6289,1.6354,1.6271,1.6272,1.6285,1.6441,1.6449,1.6462,1.6351,1.6354,1.6355,1.6437,0,1.5831,1.5927,1.594,1.6024,1.6071,1.607,1.6117,1.6152,1.617,1.6212,1.6233,1.6281,1.6262,1.628,1.6316,1.6338,1.6385,1.6333,1.6393,1.6395,1.6381,1.6476,1.6485,1.656,1.6448,1.6449,1.6451,0,1.5933,1.5975,1.6064,1.6107,1.6127,1.6169,1.6217,1.6258,1.6298,1.6309,1.6342,1.6345,1.6401,1.6371,1.6448,1.6412,1.6438,1.6453,1.6456,1.6461,1.6426,1.6483,1.6585,1.6595,1.6468,1.6466,1.6465,0,1.5985,1.6065,1.6128,1.615,1.6201,1.6231,1.6253,1.6291,1.6321,1.6363,1.6383,1.6431,1.6457,1.6495,1.6511,1.6487,1.6588,1.6558,1.6598,1.6598,1.6618,1.6616,1.6724,1.6637,1.6636,1.6636,1.6636,0,1.6069,1.6123,1.6152,1.6191,1.6252,1.6268,1.6328,1.635,1.6384,1.6427,1.6429,1.647,1.649,1.6533,1.6547,1.6609,1.6621,1.6631,1.6634,1.663,1.6629,1.6646,1.6641,1.6639,1.6639,1.6638,1.6638,0,1.6136,1.6158,1.6227,1.6271,1.6283,1.6326,1.6364,1.6402,1.642,1.6475,1.6489,1.6518,1.657,1.6591,1.6654,1.6663,1.6734,1.6733,1.672,1.6721,1.6759,1.6755,1.6881,1.6898,1.68,1.6801,1.6802,0,1.6187,1.6229,1.6278,1.6307,1.6331,1.6378,1.6409,1.6426,1.6458,1.6508,1.654,1.6591,1.6633,1.6716,1.6743,1.6792,1.6792,1.6833,1.6799,1.6794,1.6791,1.6788,1.6792,1.6838,1.6839,1.684,1.6841,0,1.6276,1.6285,1.6329,1.6378,1.6414,1.6454,1.6491,1.6515,1.6539,1.6575,1.6628,1.666,1.6726,1.6777,1.6827,1.6851,1.685,1.6852,1.6863,1.6859,1.6849,1.6854,1.6736,1.6848,1.6847,1.6847,1.6846,1.6846,1.6336,1.6373,1.6413,1.6463,1.6493,1.6529,1.6567,1.6591,1.6636,1.669,1.6698,1.6755,1.6794,1.6862,1.6888,1.6933,1.6922,1.6939,1.6943,1.6946,1.6948,1.6844,1.6942,1.6942,1.6942,1.6942,1.6941,0,1.6423,1.6449,1.6495,1.6548,1.6587,1.6584,1.6626,1.6659,1.6709,1.6747,1.6788,1.685,1.69,1.6931,1.6982,1.7012,1.7013,1.7024,1.7021,1.7027,1.6956,1.694,1.7023,1.7023,1.7023,1.7023,1.7023,1.7023,1.6473,1.6536,1.655,1.6628,1.6654,1.671,1.6734,1.6767,1.6797,1.6865,1.6907,1.6928,1.6963,1.7017,1.7062,1.7071,1.7089,1.7101,1.7108,1.704,1.7032,1.7024,1.7009,1.7105,1.7105,1.7175,1.7176,1.7177]},{"header":{"parameterUnit":"m.s-1","parameterCategory":1,"la1":30.2991,"la2":30.254,"lo1":-89.0895,"lo2":-89.0444,"dy":0.0017,"dx":0.0017,"nx":28,"ny":28,"refTime":"2025-09-12T09:00:00:Z","depth":0,"parameterNumber":3,"parameterNumberName":"V-component_of_WINDS"},"data":[0,0,0,0,0,0,0,0,0,0,0,0,0,0,0,0,0,0,0,0,0,0,0,0,0,0,0,0,0,0,0,0,0,0,0,0,0,0,0,0,0,0,0,0,0,0,0,0,0,0,0,0,0,0,0,0,0,0,-0.4856,-0.4857,0,-0.499,-0.4991,-0.4993,-0.5088,-0.5089,-0.509,-0.5091,-0.5227,-0.523,-0.5232,0,0,0,0,0,0,0,0,0,0,0,0,0,-0.4683,-0.4686,-0.4856,-0.4857,-0.4859,-0.4989,-0.4991,-0.4993,-0.5088,-0.5089,-0.509,-0.5091,-0.5226,-0.5229,-0.5233,0,0,0,0,0,0,0,0,0,0,0,0,0,-0.4782,-0.4687,-0.4855,-0.4922,-0.493,-0.4989,-0.4991,-0.4994,-0.5088,-0.5089,-0.509,-0.5092,-0.5225,-0.5229,-0.5233,-0.5236,0,0,-0.5246,-0.5248,0,0,0,0,0,0,0,0,-0.4776,-0.4788,-0.4911,-0.4918,-0.4926,-0.5024,-0.498,-0.5075,-0.5088,-0.5028,-0.5091,-0.5092,-0.5158,-0.5168,-0.5191,-0.5243,-0.5249,-0.5247,-0.5249,-0.5251,-0.5253,0,0,0,0,0,0,0,-0.4769,-0.4783,-0.4909,-0.4913,-0.4922,-0.4946,-0.4961,-0.4999,-0.5085,-0.5033,-0.504,-0.5055,-0.5163,-0.5186,-0.5194,-0.5251,-0.5247,-0.5251,-0.5253,-0.5255,-0.5315,-0.5314,0,0,0,0,0,0,-0.4752,-0.4776,-0.4905,-0.4913,-0.4852,-0.4948,-0.4965,-0.4991,-0.5085,-0.51,-0.5054,-0.5059,-0.5178,-0.5189,-0.52,-0.5211,-0.5251,-0.5255,-0.5258,-0.5316,-0.5314,-0.5313,0,0,0,0,0,0,-0.4748,-0.4762,-0.4899,-0.4847,-0.4866,-0.495,-0.4978,-0.4993,-0.5017,-0.51,-0.5116,-0.5062,-0.518,-0.5193,-0.5227,-0.5217,-0.5257,-0.5261,-0.5317,-0.5315,-0.5314,-0.5232,0,0,0,0,0,0,-0.4742,-0.476,-0.4762,-0.4846,-0.4868,-0.4924,-0.4978,-0.4995,-0.5024,-0.5032,-0.5112,-0.5127,-0.5181,-0.522,-0.5231,-0.5223,-0.5265,-0.5318,-0.5316,-0.5314,-0.5236,-0.5228,-0.5221,0,0,0,0,0,-0.4736,-0.4733,-0.4761,-0.4776,-0.4872,-0.4923,-0.4936,-0.4999,-0.5023,-0.5026,-0.508,-0.5124,-0.5216,-0.5223,-0.5236,-0.5229,-0.5319,-0.5317,-0.5314,-0.5239,-0.5229,-0.5221,0,0,0,0,0,0,-0.4645,-0.4745,-0.4778,-0.4802,-0.4853,-0.4939,-0.4944,-0.4987,-0.5032,-0.5037,-0.5114,-0.5131,-0.5157,-0.5197,-0.5202,-0.5239,-0.5273,-0.5273,-0.5211,-0.5203,-0.5195,-0.5185,-0.5268,0,0,0,0,0,-0.4627,-0.466,-0.4746,-0.476,-0.4784,-0.4859,-0.4884,-0.4929,-0.4985,-0.5007,-0.5063,-0.5116,-0.5157,-0.5182,-0.5224,-0.5243,-0.5262,-0.5245,-0.5237,-0.523,-0.523,-0.5244,-0.5237,-0.5306,-0.5306,-0.5306,0,0,-0.4592,-0.4651,-0.4667,-0.4743,-0.4788,-0.482,-0.4877,-0.4909,-0.4934,-0.5011,-0.5047,-0.509,-0.5154,-0.518,-0.5195,-0.5214,-0.5215,-0.5228,-0.5222,-0.5225,-0.5241,-0.5234,-0.5228,-0.5304,-0.5304,-0.5305,0,0,-0.4544,-0.4592,-0.4609,-0.4653,-0.4721,-0.4772,-0.4776,-0.4856,-0.4888,-0.4925,-0.4984,-0.5015,-0.5084,-0.5128,-0.5159,-0.513,-0.5173,-0.5142,-0.5102,-0.5115,-0.5109,-0.5105,-0.5095,-0.5091,-0.5141,-0.514,-0.514,0,-0.4492,-0.4543,-0.4612,-0.4641,-0.4673,-0.4746,-0.4764,-0.4804,-0.4881,-0.4902,-0.4923,-0.5012,-0.506,-0.5098,-0.5091,-0.5114,-0.5121,-0.5132,-0.5104,-0.5101,-0.5098,-0.5089,-0.5085,-0.5136,-0.5137,-0.5137,-0.5138,0,-0.4476,-0.4511,-0.4516,-0.459,-0.4623,-0.4646,-0.4719,-0.4744,-0.4786,-0.4835,-0.4873,-0.4933,-0.499,-0.5002,-0.5043,-0.5047,-0.5057,-0.509,-0.5126,-0.5086,-0.5079,-0.5077,-0.513,-0.5132,-0.5133,-0.5134,0,0,-0.4373,-0.4486,-0.4487,-0.4523,-0.4604,-0.4632,-0.4659,-0.4715,-0.4735,-0.4787,-0.4812,-0.487,-0.4902,-0.4937,-0.4984,-0.4995,-0.4969,-0.5028,-0.503,-0.5015,-0.4978,-0.4952,-0.4947,-0.4999,-0.4998,-0.4998,-0.4973,0,-0.4338,-0.439,-0.4454,-0.4485,-0.4519,-0.4589,-0.4613,-0.4666,-0.4712,-0.4748,-0.48,-0.484,-0.4878,-0.49,-0.4914,-0.4969,-0.4963,-0.4972,-0.5023,-0.5024,-0.5005,-0.4944,-0.4917,-0.489,-0.4971,-0.497,-0.497,0,-0.4303,-0.4353,-0.4387,-0.4467,-0.4483,-0.4503,-0.4561,-0.4594,-0.4655,-0.4689,-0.4729,-0.478,-0.4813,-0.4845,-0.4892,-0.4897,-0.4922,-0.4952,-0.4953,-0.496,-0.4994,-0.4949,-0.4883,-0.4878,-0.4967,-0.4967,-0.4967,0,-0.4226,-0.43,-0.4331,-0.4359,-0.4453,-0.4465,-0.4505,-0.4568,-0.4598,-0.4648,-0.4669,-0.4722,-0.4751,-0.4791,-0.4855,-0.4873,-0.4896,-0.4933,-0.4925,-0.4923,-0.4926,-0.4924,-0.4862,-0.4941,-0.4941,-0.4941,-0.4941,0,-0.418,-0.4198,-0.4298,-0.4316,-0.4339,-0.4413,-0.4434,-0.448,-0.4535,-0.4565,-0.4629,-0.4655,-0.4739,-0.4775,-0.4826,-0.4858,-0.487,-0.4898,-0.4911,-0.4893,-0.4889,-0.4909,-0.4913,-0.494,-0.4941,-0.4941,-0.4941,0,-0.4096,-0.4163,-0.4202,-0.4288,-0.431,-0.4323,-0.4397,-0.4419,-0.447,-0.4506,-0.4519,-0.4599,-0.4645,-0.4714,-0.478,-0.4815,-0.4839,-0.486,-0.4817,-0.4825,-0.4813,-0.4813,-0.4761,-0.4759,-0.4839,-0.4838,-0.4837,0,-0.4062,-0.4078,-0.4167,-0.4191,-0.4229,-0.4267,-0.4299,-0.4372,-0.4403,-0.4475,-0.4488,-0.4539,-0.4584,-0.4655,-0.4719,-0.4771,-0.4795,-0.4773,-0.4803,-0.4784,-0.4795,-0.4793,-0.4795,-0.4765,-0.4764,-0.4763,-0.4762,0,-0.3995,-0.4028,-0.4071,-0.4126,-0.4162,-0.4209,-0.4259,-0.4275,-0.436,-0.4391,-0.4439,-0.4474,-0.4543,-0.4594,-0.4655,-0.4696,-0.4743,-0.4753,-0.4754,-0.4734,-0.4709,-0.4723,-0.4798,-0.4753,-0.4754,-0.4755,-0.4755,-0.4756,-0.3936,-0.3954,-0.4019,-0.4066,-0.4111,-0.4157,-0.4181,-0.4236,-0.4278,-0.434,-0.4381,-0.4428,-0.4491,-0.4578,-0.4617,-0.4655,-0.4675,-0.4675,-0.4676,-0.4675,-0.4668,-0.4703,-0.4666,-0.4667,-0.4667,-0.4667,-0.4667,0,-0.3872,-0.3918,-0.396,-0.4029,-0.4065,-0.4108,-0.4166,-0.4193,-0.4233,-0.4288,-0.4332,-0.4388,-0.4438,-0.4507,-0.4562,-0.4579,-0.4603,-0.4591,-0.4591,-0.46,-0.4647,-0.4641,-0.4572,-0.4572,-0.4572,-0.4572,-0.4572,-0.4572,-0.3844,-0.3877,-0.3918,-0.3974,-0.4021,-0.4067,-0.4097,-0.4139,-0.4184,-0.4244,-0.4286,-0.4331,-0.4392,-0.4453,-0.4501,-0.452,-0.4537,-0.4519,-0.4545,-0.4588,-0.4596,-0.4604,-0.4599,-0.4522,-0.4522,-0.4495,-0.4494,-0.4494]}]]